Flag for U.S.A. Weather past 2 weeks in Fremont, California, U.S.A.

Now
79 °F

Sunny.


Feels Like: 79 °F
Forecast: 55 / 72 °F
Wind: 8 mph from North

Location: Moffett Field

Current Time: Mar 26, 2015 at 5:26:40 PM

Latest Report: Mar 26, 2015 at 4:56 PM


Visibility: 10 mi

Pressure: 30.06 "Hg

Humidity: 42%

Dew point: 54 °F

Location of FremontLocation

Historic Weather in Fremont — Graph

°F

Fremont temperature yesterday

Maximum temperature yesterday: 74 °F (at 2:56 PM)
Minimum temperature yesterday: 51 °F (at 6:56 AM)
Average temperature yesterday: 62 °F

Past Weeks' High & Low Weather Summary

 TemperatureHumidityPressure
High82 °F (Mar 14, 2:56 PM)90% (Mar 23, 1:56 AM)30.33 "Hg (Mar 23, 1:56 AM)
Low48 °F (Mar 18, 4:56 AM)27% (Mar 19, 12:56 PM)29.97 "Hg (Mar 14, 6:56 PM)
Average61 °F65%30.14 "Hg
* Reported Mar 11 3:56 PM — Mar 26 3:56 PM, Fremont, Weather by CustomWeather, © 2015

Note: Actual official high and low records may vary slightly from our data, if they occured in-between our weather recording intervals... More about our weather records

Advertising

Fremont weather history for previous 24 hours

 ConditionsComfort  
Time TempWeatherWind HumidityBarometerVisibility
3:56 PM
Thu, Mar 26
82 °FSunny.8 mph40%30.06 "Hg10 mi
2:56 PM81 °FSunny.No wind32%30.08 "Hg10 mi
1:56 PM78 °FSunny.3 mph37%30.11 "Hg10 mi
12:56 PM75 °FSunny.6 mph45%30.15 "Hg10 mi
11:56 AM72 °FSunny.No wind49%30.16 "Hg10 mi
10:56 AM68 °FSunny.5 mph57%30.18 "Hg10 mi
9:56 AM64 °FSunny.No wind65%30.19 "Hg10 mi
8:56 AM60 °FSunny.No wind72%30.18 "Hg10 mi
7:56 AM55 °FClear.No wind83%30.17 "Hg10 mi
6:56 AM53 °FClear.No wind80%30.16 "Hg10 mi
5:56 AM54 °FClear.No wind83%30.15 "Hg10 mi
4:56 AM52 °FClear.No wind86%30.15 "Hg10 mi
3:56 AM54 °FClear.No wind80%30.15 "Hg10 mi
2:56 AM54 °FClear.No wind83%30.16 "Hg10 mi
1:56 AM57 °FClear.No wind83%30.16 "Hg10 mi
12:56 AM56 °FClear.No wind84%30.17 "Hg10 mi
11:56 PM
Wed, Mar 25
59 °FClear.No wind78%30.18 "Hg10 mi
10:56 PM59 °FClear.No wind78%30.19 "Hg10 mi
9:56 PM59 °FClear.No wind81%30.19 "Hg10 mi
8:56 PM60 °FClear.10 mph78%30.18 "Hg10 mi
7:56 PM62 °FSunny.14 mph75%30.17 "Hg10 mi
6:56 PM64 °FSunny.13 mph70%30.16 "Hg10 mi
5:56 PM69 °FSunny.12 mph57%30.15 "Hg10 mi
Weather by CustomWeather, © 2015

See weather overviewHow to use our weather pages